sat.trackr.live / text

‹ back to catalog

STARLINK-37022

NORAD 68101 · 2026-044A

PAYLOAD ACTIVE UNKNOWN

§ Identity

Operator
Country
US
Launch date
2026-03-08
Launch site
AFWTR
Launch vehicle
Mass (kg)
RCS (m²)

Purposes: comms

External: N2YO · Heavens-Above · Gunter

§ Orbital elements

Epoch: 2026-05-25T03:12:58.747392Z

Period
93.91 min
Inclination
97.2851°
Eccentricity
0.0001005
Mean motion
15.33453801 rev/d
Perigee alt
464.8 km
Apogee alt
466.2 km
Semi-major
6,843.7 km
B*
6.9466e-4
RAAN
105.6931°
Arg perigee
71.2252°
Mean anomaly
288.9100°
Rev number
1,329

§ Raw data

STARLINK-370221 68101U 26044A   26145.13401328  .00022424  00000+0  69466-3 0  99992 68101  97.2851 105.6931 0001005  71.2252 288.9100 15.33453801 13296

JSON: /api/v1/satellites/68101 · /tle

For live sub-satellite position, see the globe view (requires WebGL).

§ Visibility from observer

Set your observer location to see the next 7 days of passes ≥ 10°. The values pass through the URL so the page stays shareable.

No JS? Fill the form by hand. The geolocation button needs JavaScript.